User: anonymous   Login
Location: Lombard
(41.8800°N, 88.0080°W)
Time: 20:55:02
(UTC-05:00)
Language:

CAS-4A - Orbit

View from above orbital plane
View from above orbital plane
View from above satellite
View from above satellite

Ground track
Ground track

The orbit data is extracted from the following two-line orbital elements,

1 42761U 17034D   22138.43278543  .00003533  00000-0  21629-3 0  9994
2 42761  43.0161 136.9532 0007766  98.2454  56.5337 15.11755169271813
Epoch (UTC): 18 May 2022 10:23:12
Eccentricity: 0.0007766
inclination: 43.0161°
perigee height: 525 km
apogee height: 536 km
right ascension of ascending node: 136.9532°
argument of perigee: 98.2454°
revolutions per day: 15.11755169
mean anomaly at epoch: 56.5337°
orbit number at epoch: 27181

The dashed part of the orbit path shows where the satellite is in the earth's shadow,  

DLR